User: anonymous   Login
Location: Unspecified
(0.0000°N, 0.0000°E)
Time: 03:54:11
(UTC+02:00)
Language:

GPS 2-05 Rocket1 - Orbit

View from above orbital plane
View from above orbital plane
View from above satellite
View from above satellite

Ground track
Ground track

The orbit data is extracted from the following two-line orbital elements,

1 20362U 89097B   17177.44610958 +.00008868 +00000-0 +13066-3 0  9995
2 20362 035.6058 173.2411 0052214 039.0167 090.6983 15.53067366501262
Epoch (UTC): 26 June 2017 10:42:23
Eccentricity: 0.0052214
inclination: 35.6058°
perigee height: 372 km
apogee height: 443 km
right ascension of ascending node: 173.2411°
argument of perigee: 39.0167°
revolutions per day: 15.53067366
mean anomaly at epoch: 90.6983°
orbit number at epoch: 50126

The dashed part of the orbit path shows where the satellite is in the earth's shadow,  

DLR